Regional Weather Roundup
Issued by NWS Charleston, SC

Current Version | Previous Version | Text Only | Print | Product List | Glossary On
Versions: 1 2 3 4 5 6 7 8 9 10 11 12 13 14 15 16 17 18 19 20 21 22 23 24 25 26 27 28 29 30 31 32 33 34 35 36 37 38 39 40 41 42 43 44 45 46 47 48 49 50
000
ASUS42 KCHS 201425
RWRCHS

REGIONAL WEATHER ROUNDUP
NATIONAL WEATHER SERVICE CHARLESTON SC
1000 AM EDT WED AUG 20 2014

NOTE: "FAIR" INDICATES FEW OR NO CLOUDS BELOW 12,000 FEET WITH NO
SIGNIFICANT WEATHER AND/OR OBSTRUCTIONS TO VISIBILITY.

NOT ALL STATIONS ARE QUALITY CONTROLLED BY THE NATIONAL
WEATHER SERVICE. USE DATA WITH CAUTION...ESPECIALLY
DEWPOINT OBSERVATIONS.

SCZ027-030-031-034>040-042>050-201500-
...SOUTH CAROLINA...

CITY           SKY/WX    TMP DP  RH WIND       PRES   REMARKS
N CHARLESTON   MOSUNNY   83  73  72 NW5       30.00R
WATERFRONT PRK   N/A     82 N/A N/A W6          N/A
FORT JOHNSON   NOT AVBL
MOUNT PLEASANT FAIR      84  75  74 W5        30.00R HX  92
JOHNS ISLAND   SUNNY     84  75  74 CALM      30.01R HX  92
PINOPOLIS        N/A     81  73  78 W6        29.92R
MONCKS CORNER    N/A     82  77  83 CALM      30.00R HX  91
SUMMERVILLE    FAIR      81  75  83 CALM      30.00S
BEAUFORT MCAS  MOSUNNY   82  73  74 W10       30.01R
BEAUFORT ARPT  FAIR      82  73  74 W5        30.01R
HILTON HEAD IS SUNNY     79  73  83 SW14      30.03R
GEORGETOWN     NOT AVBL
WALTERBORO     SUNNY     82  77  83 W5        30.02R HX  91
ORANGEBURG     MOSUNNY   80  71  74 VRB5      30.00R
BARNWELL       FAIR      82  73  74 W7        30.02R
AIKEN          FAIR      82  73  74 W3        30.05S
MANNING        FAIR      82  77  83 CALM      29.99R HX  91
KINGSTREE      NOT AVBL
COLUMBIA       MOSUNNY   83  71  67 NW3       29.99R
SUMTER         SUNNY     81  74  78 SW2       29.98R
FLORENCE       SUNNY     83  72  69 CALM      29.98R
MYRTLE BEACH   SUNNY     82  73  74 SW6       29.98R
N MYRTLE BEACH SUNNY     82  74  76 CALM      29.97R

$$

GAZ063-065-086>088-099>101-113>116-118-119-134-136>141-150-201500-
...GEORGIA...

CITY           SKY/WX    TMP DP  RH WIND       PRES   REMARKS
SAVANNAH ARPT  MOSUNNY   82  72  71 W8        30.03R
HUNTER AAF     SUNNY     82  73  74 W7        30.02R
FORT STEWART   SUNNY     82  71  69 W8        30.03R
STATESBORO     NOT AVBL
SYLVANIA       SUNNY     83  76  81 NW5       30.04R HX  91
CLAXTON        FAIR      82  75  78 W6        30.05R HAZE
THOMSON        SUNNY     85  77  77 NW3       30.07S HX  94
AUGUSTA-BUSH   SUNNY     83  71  67 NW8       30.00R
AUGUSTA-DANIEL SUNNY     82  71  69 VRB3      30.03R
SWAINSBORO     FAIR      84  79  84 W5        30.06R HX  96
VIDALIA          N/A     81  73  78 W7        30.06R
ALMA           SUNNY     80  72  76 W7        30.06R
WAYCROSS       SUNNY     86  75  70 NW6       30.07R HX  95
JESUP            N/A     84  73  70 W7        30.06S HX  91
BRUNSWICK      SUNNY     86  70  58 W9        30.06S HX  90
SAINT SIMONS   SUNNY     82  71  69 W9        30.05R

$$

SCZ027-028-034-036>038-045-046-048>050-GAZ119-141-201500-
...LAKE AND SUPPLEMENTAL COASTAL OBSERVATIONS...

STATION/POSITION TIME  TEMP    WIND        PRES    WAVE   SWELL
                       AIR SEA DIR/SP/G            HT/PER HT/PER/DIR
                 (UTC) (F)     (DEG/KT/KT) (MB)    (FT/S) (FT/S/D)
UPR LAKE MARION  NOT AVBL
WINYAH BAY       1400   80     290/  5     1015.0S
LAKE MURRAY      1300   79     330/  2/  4 1015.2R
ACE BASIN NERRS  1400   80     270/  3     1016.0S
FORT PULASKI     1400   80     270/  6/  7 1017.0R
SAPELO ISLAND    1400   82     270/  9     1018.0S

$$

ANZ835-935-AMZ111-154-330-350-352-354-374-450-454-472-201500-
...C-MAN AND BUOY OBSERVATIONS...

STATION/POSITION TIME  TEMP    WIND        PRES    WAVE   SWELL
                       AIR SEA DIR/SP/G            HT/PER HT/PER/DIR
                 (UTC) (F)     (DEG/KT/KT) (MB)    (FT/S) (FT/S/D)
FOLLY BEACH CMAN 1400   82     270/  3/  5 1016.2R
BUOY 41004       1400   81 83  270/ 12/ 14 1015.1R   4/ 6   3/ 6
BUOY 41008       1400   80 85  260/ 14/ 16 1017.1R   2/ 3
5E ST. MARYS GA  1400      81                N/A     2/ 2
FRYING PAN BUOY  NOT AVBL
BUOY 41025       1400   78     310/  8/ 10 1013.8R   2/ 7   2/190/ 7
CAPE LOOKOUT NC  1400   78     340/ 10/ 11 1014.7R
BUOY 41002       1331   82 81  240/ 19/ 21 1016.5R   6/ 6   2/ 90/10
BUOY 41010       1400   83 85  230/ 10/ 12 1018.5R   3/ 4   2/130/ 8
BUOY 41012       NOT AVBL
ST AUGUSTINE FL  1400   84     290/ 12/ 15 1019.3R
CAPERS NEARSHORE 1300   79     280/ 10/ 12   N/A
FRIPP NEARSHORE  NOT AVBL


$$


USA.gov is the U.S. government's official web portal to all federal, state and local government web resources and services.